SCP
0 -0 -0 -0 -0 -0 -0 -0 -0 -0 0 0 0 -0 -0 -0 -0 -0 -0 -0 0 0 0 0 0 0 0 0 0 0 0 0 0 -0 -0 -0 -0 0 0 0 0 0 0
-0 -0 -0 -0 -0 -0 -0 -0 -0 -0 -0 0 0 0 -0 -0 -0 -0 -0 -0 -0 -0 -0 -0 -0 -0 0 0 0 0 0 0 0 0 0 0 0 0 0 0 0 0 0
-0 0 -0 -0 -0 -0 -0 -0 -0 -0 -0 -0 -0 -0 -0 -0 -0 -0 -0 -0 -0 -0 -0 -0 -0 -0 -0 0 -0 -0 0 0 0 0 0 0 0 0 0 0 0 0 0
0 0 0 -0 -0 -0 -0 -0 -0 -0 -0 -0 -0 -0 -0 -0 -0 -0 -0 -0 -0 -0 -0 -0 -0 -0 -0 -0 -0 -0 -0 -0 -0 -0 0 0 0 0 0 0 0 0 0
0 0 0 -0 -0 -0 -0 -0 -0 -0 -0 -0 -0 -0 -0 -0 -0 -0 -0 -0 -0 -0 -0 -0 -0 -0 -0 -0 -0 -0 -0 -0 -0 -0 0 0 0 0 0 0 0 0 0
0 0 0 -0 -0 -0 -0 -0 -0 -0 -0 -0 -0 -0 -0 -0 -0 -0 -0 -0 -0 -0 -0 -0 0 0 0 0 -0 -0 -0 -0 -0 0 0 0 0 -0 0 0 0 0 0
0 0 0 0 -0 -0 -0 -0 -0 -0 -0 -0 -0 -0 -0 -0 -0 -0 -0 0 0 0 0 0 0 0 0 0 0 0 -0 -0 0 0 0 0 0 -0 -0 -0 0 0 0
-0 0 0 0 0 0 0 0 0 0 0 0 0 0 -0 -0 -0 -0 0 0 0 0 0 0 0 0 0 0 0 0 -0 -0 0 0 0 0 -0 -0 -0 -0 -0 -0 0
0 0 0 0 0 0 0 0 0 0 0 0 0 0 0 0 0 0 0 0 0 0 0 0 0 0 0 0 0 0 0 0 0 0 0 0 0 0 0 0 0 0 0
0 0 0 0 0 0 0 0 0 0 0 0 0 0 0 0 0 0 0 0 0 0 0 0 0 0 0 0 0 0 0 0 0 0 0 0 0 0 0 0 0 0 0
0 0 0 0 0 0 0 0 0 0 0 0 0 0 0 0 0 0 0 0 0 0 0 0 0 0 0 0 0 0 0 0 0 0 0 0 0 0 0 0 0 0 0
0 0 0 0 0 0 0 0 0 0 0 0 0 0 0 0 0 0 0 0 0 0 0 0 0 0 0 0 0 0 0 0 0 0 0 0 0 0 0 0 0 0 0
0 0 0 0 0 0 0 0 0 0 0 0 0 0 0 0 0 0 0 0 0 0 0 0 0 0 0 0 0 0 0 0 0 0 0 0 0 0 0 0 0 0 0
0 0 0 0 0 0 0 0 0 0 0 0 0 0 0 0 0 0 0 0 0 0 0 0 0 0 0 0 0 0 0 0 0 0 0 0 0 0 0 0 0 0 0
0 0 0 0 0 0 0 0 0 0 0 0 0 0 0 0 0 0 0 0 0 0 0 0 0 0 0 0 0 0 0 0 0 0 0 0 0 0 0 0 0 0 0
0 0 0 0 0 0 0 0 0 0 0 0 0 0 0 0 0 0 0 0 0 0 0 0 0 0 0 0 0 0 0 0 0 0 0 0 0 0 0 0 0 0 0
0 0 0 0 0 0 0 0 0 0 0 0 0 0 0 0 0 0 0 0 0 0 0 0 0 0 0 0 0 0 0 0 0 0 0 0 0 0 0 0 0 0 0
0 0 0 0 0 0 0 0 0 0 0 0 0 0 0 0 0 0 0 0 0 0 0 0 0 0 0 0 0 0 0 0 0 0 0 0 0 0 0 0 0 0 0
0 0 0 0 0 0 0 0 0 0 0 0 0 0 0 0 0 0 0 0 0 0 0 0 0 0 0 0 0 0 0 0 0 0 0 0 0 0 0 0 0 0 0
0 0 0 0 0 0 0 0 0 0 0 0 0 0 0 0 0 0 0 0 0 0 0 0 0 0 0 0 0 0 0 0 0 0 0 0 0 0 0 0 0 0 0
0 0 0 0 0 0 0 0 0 0 0 0 0 0 0 0 0 0 0 0 0 0 0 0 0 0 0 0 0 0 0 0 0 0 0 0 0 0 0 0 0 0 0
0 0 0 0 0 0 0 0 0 0 0 0 0 0 0 0 0 0 0 0 0 0 0 0 0 0 0 0 0 0 0 0 0 0 0 0 0 0 0 0 0 0 0
0 0 0 0 0 0 0 0 0 0 0 0 0 0 0 0 0 0 0 0 0 0 0 0 0 0 0 0 0 0 0 0 0 0 0 0 0 0 0 0 0 0 0
0 0 0 0 0 0 0 0 0 0 0 0 0 0 0 0 0 0 0 0 0 0 0 0 0 0 0 0 0 0 0 0 0 0 0 0 0 0 0 0 0 0 0
0 0 0 0 0 0 0 0 0 0 0 0 0 0 0 0 0 0 0 0 0 0 0 0 0 0 0 0 0 0 0 0 0 0 0 0 0 0 0 0 0 0 0
0 0 0 0 0 0 0 0 0 0 0 0 0 0 0 0 0 0 0 0 0 0 0 0 0 0 0 0 0 0 0 0 0 0 0 0 -0 -0 0 0 0 0 0
Wind_Speed_500mb
44 38 33 32 33 31 28 26 23 21 20 18 17 16 14 12 10 9 10 9 7 7 7 8 8 6 4 3 1 2 4 5 6 6 6 5 8 9 10 10 14 11 9
33 39 34 31 31 33 32 29 25 22 20 19 19 20 19 20 17 15 12 13 15 14 10 11 7 6 7 5 5 4 2 2 0 1 2 3 6 9 8 8 10 10 8
33 35 33 32 30 29 32 31 27 26 25 24 20 23 21 19 19 19 17 19 18 17 17 12 7 10 10 10 11 9 7 6 5 5 5 4 2 2 1 3 9 11 11
26 33 34 33 32 34 33 31 31 29 28 28 29 26 24 23 22 19 18 17 18 19 20 16 13 13 13 13 13 14 12 11 9 8 8 7 9 10 4 9 11 12 13
28 34 36 35 35 35 34 33 32 33 33 30 24 24 25 22 20 19 18 19 20 22 22 20 19 19 20 20 20 20 19 16 15 12 12 12 12 13 11 9 11 11 11
32 38 38 38 38 37 36 34 34 32 32 27 22 19 19 16 15 15 15 16 17 18 19 19 19 20 21 22 23 23 23 24 24 22 20 19 16 14 13 9 13 14 13
34 40 41 40 39 38 38 36 32 32 25 22 18 17 16 15 13 13 12 13 14 15 15 14 14 13 13 15 17 18 19 22 24 25 28 27 24 22 19 14 10 18 16
34 41 44 42 40 39 38 35 35 30 27 25 24 21 18 14 12 10 8 8 7 7 6 5 5 5 6 9 11 10 11 13 17 21 24 29 30 29 29 25 17 15 14
36 44 47 46 44 42 40 37 34 30 28 25 23 22 20 18 16 13 12 11 9 7 5 4 4 6 8 10 11 12 12 12 14 17 19 23 27 31 31 32 34 27 21
40 46 49 49 49 47 45 43 38 34 32 29 26 23 19 16 14 13 12 11 9 7 5 5 7 9 10 13 14 15 16 16 17 18 19 19 21 26 31 34 36 35 32
47 50 54 55 53 51 50 48 45 41 38 35 33 30 25 20 17 14 12 10 9 9 8 8 9 12 14 17 19 20 21 21 21 21 22 21 21 23 25 30 34 37 39
52 52 57 60 59 58 57 55 51 47 44 41 40 36 31 26 22 18 15 14 14 14 14 15 15 16 17 18 22 23 22 23 23 23 24 24 23 23 25 26 26 32 39
52 57 58 60 62 64 64 62 58 54 50 47 45 42 37 32 26 22 19 18 17 18 17 19 20 21 21 23 24 26 28 26 26 26 26 26 24 24 24 26 26 25 28
59 59 62 62 64 66 67 68 64 62 57 54 52 48 43 37 32 28 25 23 22 22 22 21 21 23 25 27 30 31 30 30 28 26 27 25 25 25 24 26 25 25 25
68 64 65 66 68 69 71 71 70 67 62 58 58 54 49 44 38 33 29 27 26 25 25 26 25 24 23 25 27 28 27 27 27 25 26 27 26 27 25 24 25 24 26
72 72 69 71 71 73 75 75 76 72 66 65 63 59 54 48 43 38 35 32 31 29 28 28 28 27 27 29 30 28 28 26 27 27 26 25 24 25 25 25 26 27 25
77 75 75 75 77 79 79 79 78 76 73 72 69 65 60 54 49 45 41 38 35 32 31 30 28 29 29 29 29 29 28 28 28 26 22 20 18 18 19 17 18 16 16
81 82 78 79 83 86 85 83 81 81 78 76 74 71 66 60 56 52 48 44 42 38 35 34 31 31 32 32 29 30 29 30 29 22 21 14 9 6 7 7 7 9 8
79 80 81 83 86 88 90 88 84 82 81 80 77 74 69 65 61 57 55 51 46 42 37 34 32 32 33 34 31 31 31 31 25 23 16 10 9 11 9 10 8 9 10
83 81 79 84 88 91 93 90 88 84 83 81 80 79 74 71 66 64 60 56 52 46 41 38 35 34 35 35 33 31 31 29 21 14 12 16 18 12 12 13 13 12 14
80 72 83 89 92 95 99 97 96 96 90 87 85 82 79 76 72 69 65 62 57 51 45 42 38 35 34 34 34 30 27 16 12 17 10 9 16 5 6 12 16 25 29
75 72 75 84 92 96 99 95 99 95 94 88 87 86 84 81 77 73 70 66 61 56 52 46 40 35 34 31 29 31 9 18 15 23 34 18 4 22 23 24 29 35 28
69 65 67 74 82 89 95 99 99 96 94 93 94 92 90 86 81 77 72 69 65 61 57 51 44 37 32 29 28 19 10 6 11 22 12 26 18 24 29 27 23 29 30
59 59 66 73 78 83 92 97 100 101 100 101 92 89 91 89 84 79 75 71 68 65 62 55 48 40 33 29 28 25 22 25 13 13 15 25 33 35 29 28 33 28 31
51 51 57 65 73 77 88 94 95 99 96 89 89 92 91 90 86 83 79 76 73 69 64 58 51 43 36 32 31 29 26 26 29 27 38 34 45 38 32 39 32 38 35
44 49 52 60 65 71 81 89 95 95 93 93 95 94 92 91 90 87 84 81 77 74 68 62 55 49 41 36 35 35 32 28 28 29 35 51 55 48 44 40 45 44 39
Wind_Direction_500mb
188 186 190 192 191 195 197 199 198 194 196 196 197 206 214 214 209 209 189 166 133 110 155 198 195 206 201 180 198 342 23 37 23 19 24 27 42 43 56 27 11 22 30
192 190 192 198 196 198 202 203 205 208 210 208 211 212 217 217 219 212 203 188 173 171 192 225 220 210 202 189 216 226 227 240 311 355 328 0 28 57 48 20 19 23 8
186 191 190 193 198 196 201 203 196 202 207 206 195 212 210 214 205 208 201 204 202 212 222 233 247 228 222 223 222 223 233 223 216 214 207 216 215 170 300 315 342 330 335
193 194 193 191 194 195 200 204 204 204 201 213 213 219 216 218 229 225 217 219 223 227 233 241 245 253 257 256 259 259 253 254 250 244 247 228 238 235 220 280 303 325 321
202 199 196 196 196 200 203 206 208 212 220 224 227 220 228 235 239 239 235 233 240 251 263 266 266 264 264 265 264 263 267 267 263 255 255 249 244 259 267 292 286 296 301
204 200 201 199 200 204 207 212 212 217 225 233 232 233 236 237 238 237 239 243 251 259 263 268 271 271 269 267 267 267 266 266 262 256 250 247 247 251 260 276 286 296 291
208 204 204 207 207 207 210 216 218 224 222 223 228 228 232 237 241 243 242 244 249 257 261 264 266 272 276 280 280 276 274 272 264 257 252 248 243 243 248 266 283 295 287
212 208 207 210 211 211 215 213 212 213 213 212 212 212 210 211 217 219 225 229 232 242 257 278 300 308 309 301 298 299 287 278 277 269 258 251 247 242 243 246 248 259 286
212 213 214 212 212 214 216 214 217 218 221 218 215 203 196 196 203 204 205 204 200 209 227 252 282 299 307 300 300 299 296 293 284 280 275 265 253 248 249 247 245 244 250
218 217 219 219 218 217 216 214 218 221 219 217 211 209 211 210 209 204 205 207 202 210 230 269 296 304 308 310 315 314 312 304 294 283 277 272 267 261 253 250 252 252 254
220 219 220 221 222 222 219 217 217 218 217 215 212 212 215 218 223 225 226 235 246 255 269 285 299 308 315 322 323 319 315 307 297 288 281 275 268 266 267 259 256 259 261
228 225 223 223 223 223 223 221 222 221 218 216 214 214 214 214 215 220 227 239 250 268 286 293 302 309 318 324 325 322 317 310 301 294 288 283 276 268 263 263 258 262 268
245 232 231 228 225 225 224 226 224 224 223 220 217 218 217 216 215 220 230 246 260 267 271 281 294 304 313 319 320 319 317 315 305 298 291 285 280 276 274 272 269 256 256
247 243 237 234 230 229 226 227 228 228 226 223 223 223 220 219 220 225 232 243 253 261 272 280 285 293 303 313 319 319 318 316 309 302 294 286 279 275 271 270 271 274 268
248 244 241 238 236 234 231 229 228 228 226 225 224 224 223 222 226 229 235 244 255 264 271 277 282 290 300 306 310 314 316 312 306 298 292 288 284 279 273 272 270 271 273
248 245 243 241 239 237 236 232 231 228 226 225 225 226 226 226 228 233 238 244 248 254 262 270 278 287 296 304 310 314 315 311 303 298 293 288 282 275 271 264 264 268 272
258 252 247 244 241 239 238 235 233 232 227 226 227 227 227 227 229 231 234 240 247 255 262 267 273 282 290 296 303 309 313 312 306 297 287 280 281 276 274 274 273 278 277
256 253 251 246 243 240 239 237 233 232 229 229 228 228 228 228 229 230 234 238 245 248 254 261 273 283 293 297 302 306 313 313 309 293 280 265 250 274 308 302 294 305 303
261 256 251 247 245 243 238 237 235 233 231 231 230 230 230 230 230 232 233 234 239 244 250 257 268 279 288 294 299 305 311 314 304 290 262 219 304 287 275 267 272 296 296
263 259 254 249 244 240 238 235 234 233 232 231 232 232 231 231 231 232 232 234 239 241 247 255 264 275 284 291 298 305 312 314 297 261 216 280 303 295 285 270 283 292 294
263 257 257 251 244 237 233 231 229 230 230 230 230 231 232 232 231 232 232 234 237 240 244 249 259 271 282 290 296 301 310 302 277 201 341 292 306 348 337 301 299 306 305
267 263 257 250 245 239 234 233 231 230 230 233 231 230 230 231 231 232 233 235 236 237 240 245 253 265 278 289 296 307 285 298 248 230 295 285 246 326 316 313 311 310 311
270 265 258 251 245 238 234 229 229 229 230 230 229 228 229 229 231 233 234 234 235 236 238 242 248 256 269 282 289 290 302 237 262 293 223 279 288 315 321 326 330 321 320
285 271 257 252 247 237 231 228 228 230 230 233 234 233 230 229 230 231 232 234 236 237 239 241 244 250 260 272 278 276 273 279 293 281 267 268 297 310 316 324 326 328 327
274 263 256 252 247 237 232 229 228 230 234 238 237 234 233 231 231 232 232 234 234 236 237 239 243 249 254 262 267 267 267 275 280 282 297 293 304 311 323 328 334 330 331
263 247 242 243 241 239 233 228 230 232 234 234 234 234 233 231 232 232 232 233 234 234 236 240 242 246 253 259 268 271 269 265 269 272 284 301 311 314 323 330 331 330 333
Wind_Speed_850mb
44 38 33 32 33 31 28 26 23 21 20 18 17 16 14 12 10 9 10 9 7 7 7 8 8 6 4 3 1 2 4 5 6 6 6 5 8 9 10 10 14 11 9
33 39 34 31 31 33 32 29 25 22 20 19 19 20 19 20 17 15 12 13 15 14 10 11 7 6 7 5 5 4 2 2 0 1 2 3 6 9 8 8 10 10 8
33 35 33 32 30 29 32 31 27 26 25 24 20 23 21 19 19 19 17 19 18 17 17 12 7 10 10 10 11 9 7 6 5 5 5 4 2 2 1 3 9 11 11
26 33 34 33 32 34 33 31 31 29 28 28 29 26 24 23 22 19 18 17 18 19 20 16 13 13 13 13 13 14 12 11 9 8 8 7 9 10 4 9 11 12 13
28 34 36 35 35 35 34 33 32 33 33 30 24 24 25 22 20 19 18 19 20 22 22 20 19 19 20 20 20 20 19 16 15 12 12 12 12 13 11 9 11 11 11
32 38 38 38 38 37 36 34 34 32 32 27 22 19 19 16 15 15 15 16 17 18 19 19 19 20 21 22 23 23 23 24 24 22 20 19 16 14 13 9 13 14 13
34 40 41 40 39 38 38 36 32 32 25 22 18 17 16 15 13 13 12 13 14 15 15 14 14 13 13 15 17 18 19 22 24 25 28 27 24 22 19 14 10 18 16
34 41 44 42 40 39 38 35 35 30 27 25 24 21 18 14 12 10 8 8 7 7 6 5 5 5 6 9 11 10 11 13 17 21 24 29 30 29 29 25 17 15 14
36 44 47 46 44 42 40 37 34 30 28 25 23 22 20 18 16 13 12 11 9 7 5 4 4 6 8 10 11 12 12 12 14 17 19 23 27 31 31 32 34 27 21
40 46 49 49 49 47 45 43 38 34 32 29 26 23 19 16 14 13 12 11 9 7 5 5 7 9 10 13 14 15 16 16 17 18 19 19 21 26 31 34 36 35 32
47 50 54 55 53 51 50 48 45 41 38 35 33 30 25 20 17 14 12 10 9 9 8 8 9 12 14 17 19 20 21 21 21 21 22 21 21 23 25 30 34 37 39
52 52 57 60 59 58 57 55 51 47 44 41 40 36 31 26 22 18 15 14 14 14 14 15 15 16 17 18 22 23 22 23 23 23 24 24 23 23 25 26 26 32 39
52 57 58 60 62 64 64 62 58 54 50 47 45 42 37 32 26 22 19 18 17 18 17 19 20 21 21 23 24 26 28 26 26 26 26 26 24 24 24 26 26 25 28
59 59 62 62 64 66 67 68 64 62 57 54 52 48 43 37 32 28 25 23 22 22 22 21 21 23 25 27 30 31 30 30 28 26 27 25 25 25 24 26 25 25 25
68 64 65 66 68 69 71 71 70 67 62 58 58 54 49 44 38 33 29 27 26 25 25 26 25 24 23 25 27 28 27 27 27 25 26 27 26 27 25 24 25 24 26
72 72 69 71 71 73 75 75 76 72 66 65 63 59 54 48 43 38 35 32 31 29 28 28 28 27 27 29 30 28 28 26 27 27 26 25 24 25 25 25 26 27 25
77 75 75 75 77 79 79 79 78 76 73 72 69 65 60 54 49 45 41 38 35 32 31 30 28 29 29 29 29 29 28 28 28 26 22 20 18 18 19 17 18 16 16
81 82 78 79 83 86 85 83 81 81 78 76 74 71 66 60 56 52 48 44 42 38 35 34 31 31 32 32 29 30 29 30 29 22 21 14 9 6 7 7 7 9 8
79 80 81 83 86 88 90 88 84 82 81 80 77 74 69 65 61 57 55 51 46 42 37 34 32 32 33 34 31 31 31 31 25 23 16 10 9 11 9 10 8 9 10
83 81 79 84 88 91 93 90 88 84 83 81 80 79 74 71 66 64 60 56 52 46 41 38 35 34 35 35 33 31 31 29 21 14 12 16 18 12 12 13 13 12 14
80 72 83 89 92 95 99 97 96 96 90 87 85 82 79 76 72 69 65 62 57 51 45 42 38 35 34 34 34 30 27 16 12 17 10 9 16 5 6 12 16 25 29
75 72 75 84 92 96 99 95 99 95 94 88 87 86 84 81 77 73 70 66 61 56 52 46 40 35 34 31 29 31 9 18 15 23 34 18 4 22 23 24 29 35 28
69 65 67 74 82 89 95 99 99 96 94 93 94 92 90 86 81 77 72 69 65 61 57 51 44 37 32 29 28 19 10 6 11 22 12 26 18 24 29 27 23 29 30
59 59 66 73 78 83 92 97 100 101 100 101 92 89 91 89 84 79 75 71 68 65 62 55 48 40 33 29 28 25 22 25 13 13 15 25 33 35 29 28 33 28 31
51 51 57 65 73 77 88 94 95 99 96 89 89 92 91 90 86 83 79 76 73 69 64 58 51 43 36 32 31 29 26 26 29 27 38 34 45 38 32 39 32 38 35
44 49 52 60 65 71 81 89 95 95 93 93 95 94 92 91 90 87 84 81 77 74 68 62 55 49 41 36 35 35 32 28 28 29 35 51 55 48 44 40 45 44 39
Wind_Direction_850mb
188 186 190 192 191 195 197 199 198 194 196 196 197 206 214 214 209 209 189 166 133 110 155 198 195 206 201 180 198 342 23 37 23 19 24 27 42 43 56 27 11 22 30
192 190 192 198 196 198 202 203 205 208 210 208 211 212 217 217 219 212 203 188 173 171 192 225 220 210 202 189 216 226 227 240 311 355 328 0 28 57 48 20 19 23 8
186 191 190 193 198 196 201 203 196 202 207 206 195 212 210 214 205 208 201 204 202 212 222 233 247 228 222 223 222 223 233 223 216 214 207 216 215 170 300 315 342 330 335
193 194 193 191 194 195 200 204 204 204 201 213 213 219 216 218 229 225 217 219 223 227 233 241 245 253 257 256 259 259 253 254 250 244 247 228 238 235 220 280 303 325 321
202 199 196 196 196 200 203 206 208 212 220 224 227 220 228 235 239 239 235 233 240 251 263 266 266 264 264 265 264 263 267 267 263 255 255 249 244 259 267 292 286 296 301
204 200 201 199 200 204 207 212 212 217 225 233 232 233 236 237 238 237 239 243 251 259 263 268 271 271 269 267 267 267 266 266 262 256 250 247 247 251 260 276 286 296 291
208 204 204 207 207 207 210 216 218 224 222 223 228 228 232 237 241 243 242 244 249 257 261 264 266 272 276 280 280 276 274 272 264 257 252 248 243 243 248 266 283 295 287
212 208 207 210 211 211 215 213 212 213 213 212 212 212 210 211 217 219 225 229 232 242 257 278 300 308 309 301 298 299 287 278 277 269 258 251 247 242 243 246 248 259 286
212 213 214 212 212 214 216 214 217 218 221 218 215 203 196 196 203 204 205 204 200 209 227 252 282 299 307 300 300 299 296 293 284 280 275 265 253 248 249 247 245 244 250
218 217 219 219 218 217 216 214 218 221 219 217 211 209 211 210 209 204 205 207 202 210 230 269 296 304 308 310 315 314 312 304 294 283 277 272 267 261 253 250 252 252 254
220 219 220 221 222 222 219 217 217 218 217 215 212 212 215 218 223 225 226 235 246 255 269 285 299 308 315 322 323 319 315 307 297 288 281 275 268 266 267 259 256 259 261
228 225 223 223 223 223 223 221 222 221 218 216 214 214 214 214 215 220 227 239 250 268 286 293 302 309 318 324 325 322 317 310 301 294 288 283 276 268 263 263 258 262 268
245 232 231 228 225 225 224 226 224 224 223 220 217 218 217 216 215 220 230 246 260 267 271 281 294 304 313 319 320 319 317 315 305 298 291 285 280 276 274 272 269 256 256
247 243 237 234 230 229 226 227 228 228 226 223 223 223 220 219 220 225 232 243 253 261 272 280 285 293 303 313 319 319 318 316 309 302 294 286 279 275 271 270 271 274 268
248 244 241 238 236 234 231 229 228 228 226 225 224 224 223 222 226 229 235 244 255 264 271 277 282 290 300 306 310 314 316 312 306 298 292 288 284 279 273 272 270 271 273
248 245 243 241 239 237 236 232 231 228 226 225 225 226 226 226 228 233 238 244 248 254 262 270 278 287 296 304 310 314 315 311 303 298 293 288 282 275 271 264 264 268 272
258 252 247 244 241 239 238 235 233 232 227 226 227 227 227 227 229 231 234 240 247 255 262 267 273 282 290 296 303 309 313 312 306 297 287 280 281 276 274 274 273 278 277
256 253 251 246 243 240 239 237 233 232 229 229 228 228 228 228 229 230 234 238 245 248 254 261 273 283 293 297 302 306 313 313 309 293 280 265 250 274 308 302 294 305 303
261 256 251 247 245 243 238 237 235 233 231 231 230 230 230 230 230 232 233 234 239 244 250 257 268 279 288 294 299 305 311 314 304 290 262 219 304 287 275 267 272 296 296
263 259 254 249 244 240 238 235 234 233 232 231 232 232 231 231 231 232 232 234 239 241 247 255 264 275 284 291 298 305 312 314 297 261 216 280 303 295 285 270 283 292 294
263 257 257 251 244 237 233 231 229 230 230 230 230 231 232 232 231 232 232 234 237 240 244 249 259 271 282 290 296 301 310 302 277 201 341 292 306 348 337 301 299 306 305
267 263 257 250 245 239 234 233 231 230 230 233 231 230 230 231 231 232 233 235 236 237 240 245 253 265 278 289 296 307 285 298 248 230 295 285 246 326 316 313 311 310 311
270 265 258 251 245 238 234 229 229 229 230 230 229 228 229 229 231 233 234 234 235 236 238 242 248 256 269 282 289 290 302 237 262 293 223 279 288 315 321 326 330 321 320
285 271 257 252 247 237 231 228 228 230 230 233 234 233 230 229 230 231 232 234 236 237 239 241 244 250 260 272 278 276 273 279 293 281 267 268 297 310 316 324 326 328 327
274 263 256 252 247 237 232 229 228 230 234 238 237 234 233 231 231 232 232 234 234 236 237 239 243 249 254 262 267 267 267 275 280 282 297 293 304 311 323 328 334 330 331
263 247 242 243 241 239 233 228 230 232 234 234 234 234 233 231 232 232 232 233 234 234 236 240 242 246 253 259 268 271 269 265 269 272 284 301 311 314 323 330 331 330 333